Location: LDNL
(36.4545°S, 141.6685°E)
Time: 03:37:43
(UTC+11:00)

A-11 Canister half - Pass Details

Date: 12 August 2022
Orbit: 1524 x 1684 km, 47.3° (Epoch: 05 October)

Event Time Altitude Azimuth Distance (km) Brightness Sun altitude
Rises 15:04:11 0° 355° (N) 4,728 12.3 28.1°
Reaches altitude 10° 15:08:18 10° 11° (N) 3,727 11.7 27.6°
Maximum altitude 15:14:41 21° 54° (NE) 2,951 10.6 26.7°
Drops below altitude 10° 15:21:01 10° 98° (E) 3,705 10.7 25.9°
Sets 15:25:02 0° 113° (ESE) 4,690 11.0 25.3°
